| time (UTC) | temp F | wind direction | speed MPH | gust MPH | rain 1hr in | rain 24hr in | rain mn in | humidity % | barometer mb |
| 20260504082002 | 73 | 0.0 | 0.0 | 0.00 | 0.00 | 0.00 | 40 | 1014.4 | |
| 20260504081002 | 73 | 0.0 | 0.0 | 0.00 | 0.00 | 0.00 | 40 | 1014.6 | |
| 20260504050002 | 60 | 0.0 | 0.0 | 0.00 | 0.00 | 0.00 | 54 | 1014.6 | |
| 20260504045002 | 58 | 0.0 | 0.0 | 0.00 | 0.00 | 0.00 | 52 | 1014.6 | |
| 20260504044003 | 58 | 0.0 | 0.0 | 0.00 | 0.00 | 0.00 | 55 | 1014.6 | |
| 20260504043003 | 56 | 0.0 | 0.0 | 0.00 | 0.00 | 0.00 | 54 | 1014.6 | |
| 20260504042003 | 56 | 0.0 | 0.0 | 0.00 | 0.00 | 0.00 | 55 | 1014.6 | |
| 20260504041002 | 56 | 0.0 | 0.0 | 0.00 | 0.00 | 0.00 | 55 | 1014.5 | |
| 20260504040002 | 56 | 0.0 | 0.0 | 0.00 | 0.00 | 0.00 | 54 | 1014.5 | |
| 20260504035003 | 56 | 0.0 | 0.0 | 0.00 | 0.00 | 0.00 | 54 | 1014.4 | |
| 20260504034003 | 56 | 0.0 | 0.0 | 0.00 | 0.00 | 0.00 | 53 | 1014.4 | |
| 20260504033003 | 56 | 0.0 | 0.0 | 0.00 | 0.00 | 0.00 | 52 | 1014.3 | |
| 20260504032002 | 56 | 0.0 | 0.0 | 0.00 | 0.00 | 0.00 | 51 | 1014.2 | |
| 20260504031002 | 57 | 0.0 | 0.0 | 0.00 | 0.00 | 0.00 | 50 | 1014.3 | |
| 20260504030003 | 57 | 0.0 | 0.0 | 0.00 | 0.00 | 0.00 | 50 | 1014.2 | |
| 20260504025003 | 57 | 0.0 | 0.0 | 0.00 | 0.00 | 0.00 | 50 | 1014.2 | |
| 20260504024003 | 58 | 0.0 | 0.0 | 0.00 | 0.00 | 0.00 | 49 | 1014.1 | |
| 20260504023002 | 57 | 0.0 | 0.0 | 0.00 | 0.00 | 0.00 | 50 | 1014.1 | |
| 20260504022002 | 57 | 0.0 | 0.0 | 0.00 | 0.00 | 0.00 | 50 | 1014.0 | |
| 20260504021003 | 57 | 0.0 | 0.0 | 0.00 | 0.00 | 0.00 | 49 | 1014.0 | |
| 20260504020003 | 56 | 0.0 | 0.0 | 0.00 | 0.00 | 0.00 | 48 | 1014.0 | |
| 20260504015003 | 57 | 0.0 | 0.0 | 0.00 | 0.00 | 0.00 | 48 | 1014.0 | |
| 20260504014002 | 57 | 0.0 | 0.0 | 0.00 | 0.00 | 0.00 | 48 | 1014.0 | |
| 20260504013002 | 57 | 0.0 | 0.0 | 0.00 | 0.00 | 0.00 | 48 | 1014.0 | |
| 20260504012003 | 57 | 0.0 | 0.0 | 0.00 | 0.00 | 0.00 | 48 | 1014.0 | |
| 20260504011003 | 57 | 0.0 | 0.0 | 0.00 | 0.00 | 0.00 | 48 | 1014.0 | |
| 20260504010003 | 58 | 0.0 | 0.0 | 0.00 | 0.00 | 0.00 | 47 | 1014.0 | |
| 20260504005002 | 58 | 0.0 | 0.0 | 0.00 | 0.00 | 0.00 | 48 | 1014.2 | |
| 20260504004002 | 58 | 0.0 | 0.0 | 0.00 | 0.00 | 0.00 | 47 | 1014.2 | |
| 20260504003003 | 58 | 0.0 | 0.0 | 0.00 | 0.00 | 0.00 | 48 | 1014.0 | |
| 20260504002003 | 58 | 0.0 | 0.0 | 0.00 | 0.00 | 0.00 | 47 | 1014.2 | |
| 20260504001003 | 58 | 0.0 | 0.0 | 0.00 | 0.00 | 0.00 | 46 | 1014.2 | |
| 20260504000002 | 58 | 0.0 | 0.0 | 0.00 | 0.00 | 0.00 | 45 | 1014.2 | |
| 20260503235002 | 58 | 0.0 | 0.0 | 0.00 | 0.00 | 0.00 | 46 | 1014.2 | |
| 20260503234003 | 59 | 0.0 | 0.0 | 0.00 | 0.00 | 0.00 | 46 | 1014.2 | |
| 20260503233003 | 59 | 0.0 | 0.0 | 0.00 | 0.00 | 0.00 | 46 | 1014.2 | |
| 20260503232002 | 59 | 0.0 | 0.0 | 0.00 | 0.00 | 0.00 | 46 | 1014.4 | |
| 20260503231002 | 59 | 0.0 | 0.0 | 0.00 | 0.00 | 0.00 | 46 | 1014.6 | |
| 20260503230002 | 59 | 0.0 | 0.0 | 0.00 | 0.00 | 0.00 | 46 | 1014.6 | |
| 20260503225003 | 59 | 0.0 | 0.0 | 0.00 | 0.00 | 0.00 | 46 | 1014.6 | |
| 20260503224003 | 60 | 0.0 | 0.0 | 0.00 | 0.00 | 0.00 | 46 | 1014.6 | |
| 20260503223003 | 60 | 0.0 | 0.0 | 0.00 | 0.00 | 0.00 | 46 | 1014.7 | |
| 20260503222002 | 60 | 0.0 | 0.0 | 0.00 | 0.00 | 0.00 | 46 | 1014.7 | |
| 20260503221002 | 60 | 0.0 | 0.0 | 0.00 | 0.00 | 0.00 | 46 | 1014.7 | |
| 20260503220003 | 60 | 0.0 | 0.0 | 0.00 | 0.00 | 0.00 | 46 | 1014.8 | |
| 20260503215003 | 60 | 0.0 | 0.0 | 0.00 | 0.00 | 0.00 | 46 | 1015.0 | |
| 20260503214002 | 60 | 0.0 | 0.0 | 0.00 | 0.00 | 0.00 | 46 | 1014.8 | |
| 20260503213002 | 59 | 0.0 | 0.0 | 0.00 | 0.00 | 0.00 | 47 | 1015.0 | |
| 20260503212003 | 59 | 0.0 | 0.0 | 0.00 | 0.00 | 0.00 | 48 | 1015.0 | |
| 20260503211003 | 60 | 0.0 | 0.0 | 0.00 | 0.00 | 0.00 | 47 | 1015.0 | |
| 20260503210003 | 59 | 0.0 | 0.0 | 0.00 | 0.00 | 0.00 | 48 | 1015.2 | |
| 20260503205002 | 58 | 0.0 | 0.0 | 0.00 | 0.00 | 0.00 | 52 | 1015.2 | |
| 20260503204002 | 58 | 0.0 | 0.0 | 0.00 | 0.00 | 0.00 | 52 | 1015.2 | |
| 20260503203003 | 59 | 0.0 | 0.0 | 0.00 | 0.00 | 0.00 | 48 | 1015.2 | |
| 20260503202003 | 59 | 0.0 | 0.0 | 0.00 | 0.00 | 0.00 | 47 | 1015.2 | |
| 20260503201003 | 60 | 0.0 | 0.0 | 0.00 | 0.00 | 0.00 | 48 | 1015.3 | |
| 20260503200003 | 60 | 0.0 | 0.0 | 0.00 | 0.00 | 0.00 | 46 | 1015.2 | |
| 20260503195002 | 60 | 0.0 | 0.0 | 0.00 | 0.00 | 0.00 | 46 | 1015.4 | |
| 20260503194003 | 60 | 0.0 | 0.0 | 0.00 | 0.00 | 0.00 | 46 | 1015.4 | |
| 20260503193003 | 60 | 0.0 | 0.0 | 0.00 | 0.00 | 0.00 | 44 | 1015.2 | |
| 20260503192003 | 60 | 0.0 | 0.0 | 0.00 | 0.00 | 0.00 | 47 | 1015.3 | |
| 20260503191002 | 61 | 0.0 | 0.0 | 0.00 | 0.00 | 0.00 | 46 | 1015.4 | |
| 20260503190002 | 62 | 0.0 | 0.0 | 0.00 | 0.00 | 0.00 | 44 | 1015.3 | |
| 20260503185003 | 62 | 0.0 | 0.0 | 0.00 | 0.00 | 0.00 | 47 | 1015.2 | |
| 20260503184003 | 62 | 0.0 | 0.0 | 0.00 | 0.00 | 0.00 | 46 | 1015.2 | |
| 20260503182002 | 65 | 0.0 | 0.0 | 0.00 | 0.00 | 0.00 | 44 | 1014.8 | |
| 20260503181003 | 66 | 0.0 | 0.0 | 0.00 | 0.00 | 0.00 | 42 | 1014.8 | |
| 20260503180003 | 66 | 0.0 | 0.0 | 0.00 | 0.00 | 0.00 | 42 | 1014.9 | |
| 20260503175003 | 68 | 0.0 | 0.0 | 0.00 | 0.00 | 0.00 | 40 | 1014.8 | |
| 20260503174002 | 68 | 0.0 | 0.0 | 0.00 | 0.00 | 0.00 | 38 | 1014.6 | |
| 20260503173002 | 69 | 0.0 | 0.0 | 0.00 | 0.00 | 0.00 | 38 | 1014.8 | |
| 20260503172003 | 70 | 0.0 | 0.0 | 0.00 | 0.00 | 0.00 | 37 | 1014.7 | |
| 20260503171003 | 71 | 0.0 | 0.0 | 0.00 | 0.00 | 0.00 | 36 | 1014.6 | |
| 20260503151002 | 76 | 0.0 | 0.0 | 0.00 | 0.00 | 0.00 | 34 | 1014.8 | |
| 20260503131003 | 77 | 0.0 | 0.0 | 0.00 | 0.00 | 0.00 | 34 | 1016.2 |